Terminal Aerodrome Forecast
Issued by NWS Lake Charles, LA

Home | Current Version | Previous Version | Text Only | Print | Product List | Glossary On
Versions: 1 2 3 4 5 6 7 8 9 10 11 12 13 14
000
FTUS44 KLCH 140500
TAFAEX
TAF
KAEX 140520Z 1406/1506 VRB05KT P6SM SKC
      TEMPO 1410/1412 4SM BR
     FM141500 VRB06KT P6SM SCT040=

USA.gov is the U.S. government's official web portal to all federal, state and local government web resources and services.